Weather Roundup
Issued by NWS

Home | Current Version | Previous Version | Text Only | Print | Product List | Glossary On
Versions: 1 2 3 4 5 6 7 8 9 10 11 12 13 14 15 16 17 18 19 20 21 22 23 24 25 26 27 28 29 30 31 32 33 34 35 36 37 38 39 40 41 42 43 44 45 46 47 48 49 50
000
NZUS93 KARX 310810
HRRWXR

CURRENT HOURLY OBSERVATIONS ACROSS
MUCH OF THE UPPER MISSISSIPPI VALLEY
NATIONAL WEATHER SERVICE LA CROSSE WI
300 AM CDT SUN AUG 31 2014


...SOUTHEAST MINNESOTA...


CITY           SKY/WX    TMP DP  RH WIND       PRES   REMARKS
ROCHESTER      FOG       64  63  96 SE8       29.92S VSB 1/4
ROCHESTER/MAYO CLOUDY    63  62  97 E7        29.91S
WINONA         MOCLDY    63  61  94 CALM      29.91S
AUSTIN         FOG       57  57 100 E3        29.90F VSB 1/2
ALBERT LEA     FOG       61  61 100 CALM      29.89F VSB 1/2
DODGE CENTER   FOG       61  61 100 SE5       29.91S VSB 3/4
PRESTON        FOG       63  63 100 CALM      29.93R VSB 1/4
OWATONNA       CLEAR     63  61  94 SE6       29.89F
FARIBAULT      CLEAR     66  61  82 E5        29.89F
$$

...ELSEWHERE IN MINNESOTA...


CITY           SKY/WX    TMP DP  RH WIND       PRES   REMARKS
MINNEAPOLIS    PTCLDY    63  62  97 E10       29.87F
INTNL FALLS    CLOUDY    57  56  96 SE6       29.86F
DULUTH         CLOUDY    60  56  86 SE6       29.93R
RED WING       CLEAR     64  63  94 CALM      29.90R
REDWOOD FALLS  CLEAR     61  61 100 SE9       29.81F FOG
MANKATO        CLEAR     63  59  88 SE10      29.85F
WORTHINGTON    CLEAR     61  59  94 S8        29.84F
FAIRMONT       CLEAR     57  54  88 SE6       29.86S
$$

...SOUTHWEST WISCONSIN...


CITY           SKY/WX    TMP DP  RH WIND       PRES   REMARKS
LA CROSSE      CLOUDY    65  63  93 CALM      29.91R
PRAIRIE DU CHI PTCLDY    63  61  94 CALM      29.90R
BOSCOBEL       FOG       66  65  96 CALM      29.91R VSB 1/4
LONE ROCK      HAZE      67  62  84 CALM      29.91R VSB 1/4
PLATTEVILLE    PTCLDY    64  63  96 CALM      29.92S
FORT MC COY    CLOUDY    60  59  97 CALM      29.93R
CAMP DOUGLAS   FOG       59  59 100 N2        29.92R VSB 3/4
VIROQUA        CLOUDY    64  64 100 CALM      29.93R
WIS DELLS      CLOUDY    64  63  94 CALM      29.91S
$$

...ELSEWHERE IN WISCONSIN...


CITY           SKY/WX    TMP DP  RH WIND       PRES   REMARKS
MILWAUKEE      PTCLDY    67  65  93 CALM      29.90S
MADISON        FOG       64  62  93 CALM      29.90F VSB 1/2
GREEN BAY      CLOUDY    64  60  87 CALM      29.91S
EAU CLAIRE       N/A     56  56 100 CALM      29.92S FOG
BLACK RVR FLS  FOG       57  57 100 CALM      29.92R VSB<1/4
MEDFORD        FOG       51  50  99 CALM      29.95R VSB 1
WAUSAU         CLOUDY    61  56  83 CALM      29.92R
WIS RAPIDS     CLOUDY    63  61  93 CALM      29.93R
MARSHFIELD     CLOUDY    64  60  87 NE3       29.93R
RICE LAKE      CLOUDY    58  56  92 E5        29.94R
$$

...NORTHEAST IOWA...


CITY           SKY/WX    TMP DP  RH WIND       PRES   REMARKS
WATERLOO       PTCLDY    58  57  97 E5        29.90R
DUBUQUE        PTCLDY    63  63 100 SW3       29.92S FOG
DECORAH        FOG       63  63 100 CALM      29.91R VSB<1/4
MASON CITY     PTCLDY    59  59 100 SE3       29.91S FOG
CHARLES CITY   CLEAR     63  61  94 SE5       29.92R FOG
OELWEIN        PTCLDY    63  63 100 CALM      29.92R FOG
$$

...ELSEWHERE IN IOWA...


CITY           SKY/WX    TMP DP  RH WIND       PRES   REMARKS
DES MOINES     PTCLDY    68  65  90 SE6       29.87F
IOWA CITY      CLEAR     66  65  96 CALM      29.91S
FORT DODGE     CLEAR     61  57  88 E5        29.88F
MARSHALLTOWN   CLEAR     61  61 100 E3        29.90R FOG
CEDAR RAPIDS   PTCLDY    64  64 100 SE3       29.91R FOG
$$

...NORTHERN ILLINOIS...


CITY           SKY/WX    TMP DP  RH WIND       PRES   REMARKS
CHICAGO-OHARE  MOCLDY    70  65  84 SW3       29.91S
DUPAGE         CLOUDY    69  66  90 CALM      29.92R
CHICAGO-MIDWAY MOCLDY    73  68  84 S7        29.92R
MOLINE         PTCLDY    64  63  96 CALM      29.91S FOG
ROCKFORD       MOCLDY    65  63  93 CALM      29.92S
STERLING       PTCLDY    64  61  88 CALM      29.91F
PEORIA         PTCLDY    71  65  81 S3        29.92S
$$

NOTE: "FAIR" INDICATES FEW OR NO CLOUDS BELOW 12,000 FEET WITH NO
SIGNIFICANT WEATHER AND/OR OBSTRUCTIONS TO VISIBILITY. WIND
SPEEDS ARE IN MILES-PER-HOUR.



USA.gov is the U.S. government's official web portal to all federal, state and local government web resources and services.